Theta_e
306 302 304 307 307 307 308 308 307 304 305 305 305 306 303 300 301 302 301 300 298 300 300 301 299 299 298 298 298 299 296 296 296 295 295 295 294 295 295 295 296 296 300 300
304 303 305 306 308 308 307 308 306 306 305 304 303 305 304 302 303 303 300 300 300 298 297 300 299 298 298 297 297 297 296 296 295 295 294 294 294 295 295 295 295 297 299 300
304 306 307 308 306 308 306 305 305 306 305 304 305 305 304 304 303 302 302 301 300 299 298 297 298 298 298 297 297 296 296 296 295 295 295 295 294 295 294 295 296 297 299 300
306 306 308 308 307 306 309 306 306 306 305 307 306 304 306 305 308 304 303 300 300 299 298 297 297 297 297 297 296 296 295 295 295 295 294 294 295 294 294 295 295 297 297 298
308 307 307 307 307 306 307 307 306 307 306 307 309 305 306 310 307 305 303 303 301 300 296 296 297 297 297 296 296 296 295 295 294 295 295 294 293 294 295 295 296 296 295 296
306 306 305 305 306 306 306 307 306 307 306 308 310 307 308 309 307 305 305 303 301 299 297 298 298 297 297 296 296 295 295 295 294 294 294 294 294 294 294 295 295 295 295 296
307 307 304 306 308 308 306 309 313 310 308 310 311 308 309 311 308 307 306 303 301 299 297 296 296 297 297 296 296 295 295 294 294 294 294 294 294 294 294 294 295 296 296 295
312 311 306 307 306 306 306 310 309 314 314 313 312 308 313 309 308 307 306 305 301 299 297 295 297 297 297 296 296 295 295 294 294 294 294 294 294 294 294 295 295 295 295 296
311 310 305 305 305 306 308 306 307 310 313 313 313 318 314 309 310 308 308 306 302 298 296 297 297 297 297 296 296 296 295 295 294 294 294 294 294 294 295 295 296 296 296 296
312 311 309 305 305 305 307 307 310 310 319 316 313 315 314 313 310 309 307 305 302 299 297 296 297 297 296 296 296 296 295 295 294 294 294 294 294 294 296 295 296 295 295 295
310 312 312 308 307 308 305 308 311 310 310 314 310 311 317 311 309 309 306 306 302 300 296 295 297 297 296 296 296 295 295 294 293 294 294 294 294 295 295 296 295 294 294 295
309 309 311 313 308 307 308 309 310 309 315 311 310 311 314 308 308 310 308 306 303 300 297 296 298 297 297 296 296 295 295 294 293 294 294 294 294 295 295 295 295 294 294 294
309 308 313 312 310 309 309 309 309 310 307 309 311 312 312 309 311 311 309 306 303 303 300 297 297 298 297 296 296 295 294 294 293 293 294 294 294 295 294 294 295 295 294 294
307 310 312 313 313 314 313 314 310 308 308 310 312 313 314 313 307 308 310 307 304 302 300 297 296 297 298 297 296 295 294 293 293 293 293 294 294 294 294 293 294 294 294 294
307 311 314 314 314 313 312 312 313 310 306 309 310 310 310 307 306 305 307 307 306 304 301 299 296 296 297 297 297 296 294 293 293 293 293 293 293 294 294 293 294 294 295 294
307 309 313 313 314 313 314 313 312 312 310 308 308 308 308 308 308 310 308 308 307 305 303 300 299 298 297 297 296 296 294 293 293 292 293 292 292 295 294 293 294 294 294 294
310 310 312 313 314 312 312 315 315 313 311 309 311 311 314 312 313 311 309 310 308 305 303 301 299 298 297 297 297 295 294 294 293 293 293 293 292 293 294 293 294 294 294 293
313 312 312 312 313 311 312 316 315 315 315 311 311 311 311 310 309 310 310 310 308 306 303 301 299 298 297 296 296 295 295 294 293 293 293 293 292 292 294 294 294 294 293 292
310 310 310 309 313 314 315 315 313 312 311 312 312 312 312 311 312 310 308 307 307 304 302 301 300 299 298 297 296 296 295 294 294 293 293 293 292 292 293 294 294 294 293 293
310 309 309 313 314 313 313 312 311 311 309 314 312 313 313 310 306 307 306 304 302 303 303 301 300 299 298 297 296 296 295 295 294 294 294 293 293 292 292 293 294 293 293 293
309 310 308 310 309 311 314 314 310 313 312 316 314 313 313 310 309 309 308 305 304 303 302 301 300 299 298 297 296 296 295 295 295 295 294 293 293 292 292 292 294 293 293 292
311 309 309 309 311 312 314 310 312 309 312 313 312 312 313 311 311 312 311 307 304 303 302 301 300 300 299 298 296 296 295 295 295 295 294 293 293 292 292 292 293 294 293 293
316 312 313 311 311 311 314 310 309 308 308 309 312 311 312 312 311 311 310 308 306 305 303 303 301 300 299 298 297 296 296 296 295 295 294 293 293 292 292 292 292 293 293 293
314 314 315 316 315 315 314 313 312 313 312 312 311 312 312 311 310 310 309 308 308 307 305 304 302 300 300 299 298 297 296 296 295 295 295 294 293 292 292 292 292 292 293 293
312 314 315 314 315 314 314 314 314 314 313 313 312 312 313 311 310 310 309 308 308 308 307 305 303 302 301 300 298 298 297 296 295 295 295 294 293 292 292 292 292 292 292 293
313 313 313 314 313 313 315 314 314 314 313 313 313 312 312 312 310 310 308 309 309 308 308 306 305 304 303 301 300 299 297 296 295 295 294 294 293 293 292 292 292 292 292 292
Wind_Speed
7 8 5 5 5 6 7 6 7 3 4 2 5 4 6 11 3 2 3 6 7 4 8 14 15 16 16 17 15 5 13 12 10 13 9 8 7 13 10 19 17 16 12 14
7 5 5 7 7 6 8 5 5 3 5 3 6 6 4 7 3 4 7 4 3 5 6 11 14 15 15 15 15 12 11 8 8 9 5 10 8 11 13 9 20 14 16 5
7 1 8 6 8 8 6 4 4 3 6 5 4 5 5 2 3 2 4 2 4 5 5 6 12 12 13 10 13 13 8 6 7 5 2 5 7 9 11 16 13 15 10 11
5 5 5 7 5 4 2 2 4 6 5 2 4 3 4 5 2 5 4 4 5 4 4 8 10 11 15 15 11 11 10 5 5 3 6 4 8 8 10 15 16 14 12 15
0 3 5 6 2 3 4 2 5 4 3 4 2 3 5 2 3 5 5 5 5 2 7 6 9 12 13 12 11 8 6 8 8 6 4 5 7 11 11 14 14 11 15 10
3 1 3 2 8 6 9 6 7 4 1 3 2 3 4 1 2 5 4 5 4 5 5 6 11 11 11 9 8 8 8 6 6 4 6 8 7 11 13 11 12 14 15 12
3 2 3 3 4 2 8 7 4 2 3 5 3 2 8 3 1 2 2 3 4 4 3 5 8 9 9 8 8 9 11 10 6 5 5 6 6 7 7 10 10 13 13 17
2 2 3 4 2 1 4 3 4 2 2 5 5 4 5 5 2 3 5 1 4 4 3 5 7 10 8 7 7 8 9 9 5 7 8 8 10 8 8 10 12 10 10 12
5 2 2 4 2 2 6 4 1 1 3 2 4 4 7 3 2 5 6 3 2 4 4 5 9 9 7 6 6 6 7 6 8 8 8 11 8 8 9 10 8 9 9 13
3 3 2 3 2 1 2 2 2 3 1 4 6 5 4 3 2 5 7 5 3 3 5 4 8 9 8 5 4 3 5 6 8 6 8 9 10 11 10 8 9 9 11 13
4 2 3 3 5 5 0 1 2 3 4 3 3 6 6 5 2 4 6 5 1 1 3 4 7 8 8 6 4 7 5 6 8 5 5 6 10 11 10 9 10 10 12 14
1 2 4 1 1 3 0 2 5 4 2 2 3 6 4 8 5 3 6 4 4 2 4 5 3 6 5 7 6 9 7 7 7 4 3 6 8 9 11 10 8 9 12 15
2 3 3 3 4 2 4 6 5 4 4 5 3 6 3 6 5 4 4 3 3 4 1 2 5 3 6 8 6 8 9 7 5 4 1 4 6 8 9 10 10 8 11 13
3 2 6 6 7 2 7 5 7 7 3 4 8 9 10 7 9 11 5 4 5 5 5 3 3 5 6 8 8 7 10 7 4 3 5 2 1 4 7 8 10 10 9 9
3 3 4 7 11 9 12 15 10 10 7 7 7 7 12 9 9 8 5 5 6 5 4 3 4 6 6 7 8 8 9 6 4 0 3 5 6 2 4 6 7 13 8 9
3 3 3 7 10 9 9 10 9 9 7 11 8 13 9 12 6 4 6 7 7 6 4 4 4 7 7 7 8 7 11 10 5 1 1 2 5 0 5 6 7 11 8 9
7 3 2 5 7 10 8 7 7 6 5 8 7 16 2 7 7 6 8 8 8 7 6 5 5 7 9 8 10 9 6 10 6 4 3 3 1 3 3 5 4 9 8 8
4 3 3 4 5 3 7 10 8 9 7 10 7 5 8 11 7 6 8 9 8 7 6 7 7 8 11 10 9 9 8 10 8 7 6 5 3 3 6 4 6 4 6 6
6 4 3 2 2 8 11 2 2 3 6 8 7 6 8 8 3 5 1 4 7 7 8 8 7 9 11 12 11 11 11 11 10 11 9 8 7 4 7 5 2 2 4 5
6 5 4 1 2 5 6 3 6 5 5 2 6 5 4 6 1 5 5 6 7 9 9 11 9 9 11 11 13 14 13 14 14 12 12 10 10 7 7 7 4 3 4 7
3 2 6 3 3 9 8 8 3 3 6 5 5 5 4 1 6 6 7 6 13 14 14 13 14 13 13 13 15 16 15 15 13 11 12 11 11 10 9 10 8 6 7 7
7 6 4 3 4 8 6 2 4 7 5 3 5 5 6 6 5 6 8 9 14 15 17 18 18 18 17 16 18 19 19 17 16 16 15 13 13 13 12 13 14 11 9 9
4 8 5 9 7 8 6 6 6 6 8 7 7 9 9 7 6 6 7 9 14 21 23 22 24 22 21 23 22 21 21 17 17 18 18 16 15 15 15 14 13 13 12 14
7 5 5 1 10 12 9 9 7 11 12 11 9 8 8 8 9 8 7 6 11 21 22 25 25 25 25 25 26 25 21 19 18 18 21 20 19 18 18 17 16 18 19 17
6 5 4 7 18 10 11 16 14 9 6 4 5 4 3 6 7 7 5 6 11 20 25 27 27 27 29 28 29 28 24 22 22 23 22 22 22 22 21 22 22 23 23 23
8 17 6 10 23 6 15 9 9 11 12 7 6 6 7 6 6 4 6 11 9 12 16 25 29 29 29 29 29 28 29 28 27 25 25 26 26 25 24 24 25 25 25 24
Wind_Direction
28 63 35 44 13 347 28 36 73 133 150 138 242 342 170 194 175 188 297 325 326 335 48 50 44 30 19 26 34 45 112 72 57 49 32 334 329 330 328 344 339 309 316 307
47 62 315 307 41 335 55 26 355 272 149 136 273 270 136 160 185 201 242 334 358 24 22 38 43 38 37 42 45 100 86 75 55 45 22 308 318 330 353 345 328 341 334 298
96 249 284 268 38 17 64 58 340 291 290 238 277 331 155 238 253 178 89 166 25 30 52 38 48 40 26 30 92 100 92 65 38 53 8 332 320 346 356 354 350 355 357 0
108 226 289 52 72 22 157 122 313 312 19 271 121 271 217 194 82 74 32 13 352 44 44 66 52 41 43 85 70 76 103 102 3 323 308 301 341 355 5 331 350 357 355 354
196 55 1 46 3 338 248 170 229 284 306 351 350 105 259 148 356 345 345 335 343 13 100 80 79 67 59 70 94 99 56 29 13 310 275 354 347 354 351 351 359 357 349 347
103 279 66 300 282 229 268 273 207 203 209 10 241 115 267 157 259 309 303 336 25 53 108 91 91 70 67 57 76 72 57 45 13 358 41 22 5 356 352 358 355 342 343 344
153 137 142 286 348 49 360 11 27 342 14 225 252 11 237 168 36 276 356 26 27 66 104 103 101 92 71 62 73 69 41 22 16 76 34 349 344 348 357 340 355 344 339 344
46 273 350 1 91 240 299 70 132 269 315 276 232 250 258 194 195 111 51 118 62 37 84 112 120 112 88 76 86 70 47 358 48 32 14 9 39 11 357 8 354 331 350 353
27 316 148 68 353 70 324 50 193 125 274 25 243 270 330 193 72 39 343 22 34 66 90 113 117 120 112 97 99 91 48 7 57 44 25 16 15 360 359 355 4 1 8 16
348 333 157 152 196 296 51 233 50 1 327 300 293 313 220 255 349 4 329 343 36 68 66 101 118 131 136 135 151 130 98 46 56 39 25 10 1 354 357 21 35 28 36 26
34 68 279 122 197 170 188 240 241 148 150 188 297 273 218 202 128 323 313 339 82 69 121 131 136 143 139 155 176 147 109 89 48 45 59 20 14 11 20 26 23 35 36 32
110 144 266 303 59 25 9 199 151 121 230 258 170 273 252 154 117 20 308 326 359 99 168 142 137 167 170 150 126 150 123 95 58 31 70 26 20 27 31 18 27 25 40 34
342 298 324 310 354 316 236 204 187 172 101 210 133 264 156 135 133 250 259 307 328 323 91 147 132 133 147 148 132 136 135 103 67 360 198 37 35 29 26 25 26 18 31 32
76 248 185 204 227 248 276 208 206 158 144 206 225 270 276 275 317 311 289 265 263 261 261 210 157 142 128 159 146 131 142 124 93 353 359 2 78 42 16 13 11 12 2 27
136 241 245 263 276 287 271 268 244 200 198 174 252 252 266 275 269 272 252 244 249 254 275 233 165 162 158 147 159 165 162 148 130 2 349 352 360 116 19 5 3 356 18 35
179 262 312 284 266 275 272 262 243 234 213 236 261 272 260 263 262 199 230 242 253 239 243 278 174 170 156 142 157 139 148 152 156 185 298 307 342 221 20 9 6 9 31 21
155 190 21 267 336 328 314 244 214 205 188 168 200 242 210 276 257 257 266 239 234 231 216 232 229 171 152 140 153 149 167 177 167 193 245 258 330 332 305 16 3 342 29 23
175 194 202 269 350 352 242 306 286 206 232 212 243 219 208 228 225 239 245 232 217 214 208 206 209 167 157 158 159 159 170 177 180 205 234 234 233 279 222 350 325 38 22 21
159 104 308 214 262 283 295 301 82 139 278 247 225 243 235 248 180 293 52 143 189 196 189 187 194 185 171 173 177 180 189 196 203 209 222 235 209 236 280 283 140 1 346 326
115 127 135 352 201 250 242 61 63 63 312 310 100 32 9 117 49 257 193 151 144 152 170 183 188 182 179 185 189 191 199 205 209 220 225 224 227 235 250 282 243 260 294 313
133 187 202 203 267 282 256 282 122 88 234 10 48 9 16 274 211 240 175 181 181 183 183 188 195 201 205 205 203 202 209 216 227 229 213 211 218 226 241 252 248 248 256 271
166 167 199 169 213 273 232 147 179 217 276 283 291 267 259 237 268 232 214 189 184 183 189 194 195 206 212 211 210 212 215 229 227 222 218 217 220 225 236 248 244 236 249 254
203 188 190 177 212 227 251 204 230 252 260 271 263 249 233 242 240 236 225 213 197 196 199 201 204 210 215 217 218 220 230 227 225 222 218 218 222 227 230 238 246 236 247 253
287 232 240 265 260 247 250 270 265 284 264 259 258 256 236 226 236 236 235 216 207 206 202 207 206 210 217 219 220 229 231 230 227 227 222 222 222 227 230 236 240 241 239 240
214 317 288 281 278 281 267 256 266 280 298 303 320 309 288 236 254 242 232 230 225 213 213 211 208 211 219 220 223 226 227 223 226 230 230 227 227 228 232 235 236 237 241 242
216 249 221 250 261 241 268 274 295 296 298 281 282 291 274 258 265 274 256 243 231 223 222 216 217 219 225 221 222 228 225 223 222 226 228 228 229 230 235 239 242 245 249 249